Погода Верещагино

Погода Верещагино : погода сейчас, прогноз погоды и архив. Всё, что Вы хотите узнать о погоде Верещагино!

Поиск расширенной информации на нашем сайте:

Другие новости

Новости СМИ2

Главная страница сайта

Новости сайта

03.07.2017

Напоминаем, что на нашем специализированном сайте Метеоцентр.Азия вы можете получить высокодетализированные автоматические прогнозы погоды по пунктам России, СНГ и мира в авиационном формате (включающие направление и скорость ветра, видимость, явления погоды, количество и форму облачности, нижнюю и верхнюю границу облачности).


Погода Верещагино - сегодня

Время (UTC), дата Ветер
(°,м/с) 
Видим.   Явления Облачность Т
(°С)
Тd
(°С)
f(%) Тe
(°С)
Pmin
(гПа)
dP
(гПа)
Po
(мм)
O2
(г/м3)
Тmin Tmax R s Состояние
почвы
00 21.09.17 110 (В) 10 км  слаб. ливневой дождь  10/10 600 м кучево-дожд. 
[Cb cap]
+4.4 +4.2 99 +5  1013.9  -0.7  758  300  +4    0.4     
03 21.09.17 160 (Ю) 20000 м  {ливн. осадки}  10/10 600 м кучево-дожд. 
[Cb cap]
+5.4 +4.9 97 +6  1013.1  -0.8  757  298           
06 21.09.17 300 (СЗ) 20000 м  {ливн. осадки}  10/10 600 м кучево-дожд. 
[Cb cap]
+6.7 +4.4 85 +8  1012.4  -0.6  757  297           
09 21.09.17 150 (ЮВ) 20000 м  {ливн. осадки}  10/10 600 м кучево-дожд. 
[Cb cap]
+7.2 +2.7 73 +8  1010.8  -1.6  755  296           
12 21.09.17 350 (С) 20000 м    10/10 600 м кучево-дожд. 
[Cb cap]
+6.4 +3 79 +7  1010.1  -0.8  755  297    +7.7  0.4     
15 21.09.17 340 (С) н/о  слаб. ливневой дождь  10/10 300 м кучево-дожд. 
[Cb cap]
+5.6 +5.1 97 +5  1009.3  -0.8  754  297           
18 21.09.17 340 (С) н/о  слаб. ливневой дождь  10/10 300 м кучево-дожд. 
[Cb cap]
+2.2 +0.9 91 1008.9  -0.4  754  301           
21 21.09.17 350 (С) н/о  слаб. ливневой снег  10/10 300 м кучево-дожд. 
[Cb cap]
+0.8 -0.3 92 -2  1008.9  754  303           
00 22.09.17 330 (СЗ) 10 км  слаб. ливневой снег  10/10 300 м кучево-дожд. 
[Cb cap]
+0.7 -0.7 90 -1  1009  0.1  754  303  +0.5       
03 22.09.17 310 (СЗ) 10 км  слаб. ливневой снег  10/10 300 м кучево-дожд. 
[Cb cap]
+0.7 -0.1 94 -1  1009.5  0.5  754  303           
06 22.09.17 300 (СЗ) 20000 м  {ливн. осадки}  10/10 300 м кучево-дожд. 
[Cb cap]
+0.8 -0.9 88 -1  1010.5  755  303           
09 22.09.17 300 (СЗ) 10 км  слаб. ливневой снег  10/10 300 м кучево-дожд. 
[Cb cap]
+1 -0.7 88 -1  1011.6  1.1  756  304           
12 22.09.17 300 (СЗ) 20000 м  {ливн. осадки}  10/10 600 м кучево-дожд. 
[Cb cap]
+2.7 +0.3 84 +1  1012.9  1.3  757  302    +2.8  0.7     
15 22.09.17 350 (С) 5-11{13}  н/о  слаб. ливневой дождь со снегом  10/10 600 м кучево-дожд. 
[Cb cap]
+3 -0.8 76 +1  1013.9  758  302           
18 22.09.17 330 (СЗ) 5{11}  н/о  {ливн. осадки}  10/10 600 м кучево-дожд. 
[Cb cap]
+2.2 -1.5 76 1014.4  0.5  758  303           
21 22.09.17 320 (СЗ) 4{12}  н/о    9/8 600 м кучево-дожд., средняя 
[Cb cap|Ac trans]
+1.5 -2.3 76 -1  1015.3  0.9  759  304           
00 23.09.17 330 (СЗ) 20000 м    9/9 600 м 
[Sc]
+0.4 -2.3 82 -2  1016.8  1.5  760  306  -0.5    0.0     
03 23.09.17 320 (СЗ) 20000 м    4/4 600 м 
[Sc]
-0.4 -1.6 92 -2  1017.7  0.9  760  307  -0.4         
06 23.09.17 350 (С) 20000 м    10/10 600 м кучево-дожд. 
[Cb cap]
+3.4 -0.4 76 +1  1018.3  0.6  761  303           
09 23.09.17 330 (СЗ) 20000 м    10/10 600 м 
[Cu Sc]
+5.4 +0.2 69 +4  1019.2  0.9  762  301           
12 23.09.17 320 (СЗ) 20000 м    9/9 600 м 
[Sc]
+6 -0.9 61 +4  1019.9  0.7  762  301    +6.1       
15 23.09.17 330 (СЗ) 6-10{10}  н/о    6/6 600 м 
[Sc]
+3.7 -1.9 67 +1  1020.9  763  303           
18 23.09.17 330 (СЗ) 5{10}  н/о    8/8 600 м 
[Sc]
+1.8 -1 82 -1  1021.7  0.8  763  306           
21 23.09.17 330 (СЗ) н/о    8/8 600 м 
[Sc]
+0.6 -2.3 81 -2  1022.4  0.6  764  307           
00 24.09.17 350 (С) 20000 м    1/0 верхняя 
[Ci fib]
+0.4 -2.3 82 -1  1023.2  0.8  764  308  +0.2         
Время (UTC), дата Ветер
(°,м/с) 
Видим.   Явления Облачность Т
(°С)
Тd
(°С)
f(%) Тe
(°С)
Pmin
(гПа)
dP
(гПа)
Po
(мм)
O2
(г/м3)
Тmin Tmax R s Состояние
почвы

Для получения пояснительной информации подведите курсор к названию столбца.

ПОГОДА Верещагино - архив

Всё, что Вы хотите узнать о погоде Верещагино - удобно и подробно!

Выберите нужную дату (начиная с 1 января 2015* года) и нажмите кнопку "Найти".
Будут отображены архивные сводки погоды по пункту Верещагино, начиная с указанной даты.


Отображать данные в формате CSV (для использования в таблицах Excel)


Внимание! Наш архив погоды предназначен исключительно для личного некоммерческого использования в познавательных целях. Если Вам необходимы официальные справки о состоянии погоды (для производственных, юридических, коммерческих и т.п. целей), обращайтесь в органы Росгидромета.

*Примечание: данная дата относится к архиву по метеостанциям СССР (Россия, СНГ, Балтия).
Архив по метеостанциям Зарубежной Европы и Азии (кроме Китая) хранится 10 дней, по другим регионам земного шара (Китай, Африка, Америка, Австралия, Океания) - 1 день.

Верещагино - район местоположения метеостанции


Название, широта, долгота, высота метеостанции:
Верещагино 64.2°ш. 87.6°д. 26 м над ур. моря [Российская Федерация]

Дополнительная информация

В oтличие oт бoльшинства пoгoдных сайтoв мы публикуем пoдрoбную метеoинфoрмацию в детальнoм прoфессиoнальнoм фoрмате.

Характеристики температуры и влажнoсти вoздуха измеряются на высoте 2 м в тени вдали oт зданий и деревьев.
Скoрoсть ветра измеряется на высoте 10 м (на урoвне рoста челoвека скoрoсть ветра ниже в 1.5-2 раза). Если метеoстанция нахoдится в гoрoде или в лесу, тo скoрoсть ветра занижена на 2-4 м/с пo сравнению с oткрытым местoм. Скoрoсть ветра над акватoриями крупных рек и oзёр, а также на вершинах хoлмoв на 2-5 м/с выше, чем в oбычных услoвиях.
Атмoсфернoе давление в разных тoчках местнoсти мoжет значительнo oтличаться oт давления на метеoстанции, в зависимoсти oт услoвий рельефа (при пoдъёме на 10 м давление пoнижается примернo на 1 мм рт.ст.).